If you wish to contribute or participate in the discussions about articles you are invited to join SKYbrary as a registered user

 Actions

Canberra International Airport

From SKYbrary Wiki

YSCB
Airport
ICAO: YSCB – IATA: CBR
Summary
Name Canberra International Airport
Region Asia and Pacific
Territory Australia AU.gif
Location Canberra, Australian Capital Territory
Serving Canberra
Elevation 575.462 m
1,888 ft
1,888 ft575.462 m
Coordinates 35° 18' 18.84" S, 149° 11' 36.22" E
Runways
Designator Length Width Surface ROPS
12/30 1679 m5,508.53 ft
45 m147.638 ft
ASP yes/yes
17/35 2683 m8,802.493 ft
45 m147.638 ft
ASP yes/yes


METAR
Observation YSCB 120802Z AUTO 28017G27KT 9999 // NCD 19/M03 Q1007 NOSIG
Station Canberra
Date/Time 12 November 2019 08:02:00
Wind direction 280°
Wind speed 17 kts
Lowest cloud amount no clouds detected
Temperature 19°C
Dew point
Humidity 22%
QNH 1007 hPa
Weather condition n/a

Maps

Terrain

Loading map...

Airport Layout

Loading map...


Accidents & Serious Incidents at or in vicinity of YSCB

None on SKYbrary